M I D A S
Marine Information and Data Acquisition System
Tripno 486 of the Zeeleeuw from 2003-05-07 06:49:26 to 2003-05-08 14:45:34
Back to CruiseResearch ActivitiesStationsMapUnderway DataData graphs

EquipmentUnitsComments
TimeDGPSUTC
LatitudeDGPSDM.mWGS84
LongitudeDGPSDM.mWGS84
SpeedMeteo Stationm/sRelative wind speed
DirectionMeteo StationdegRelative wind direction
TemperatureMeteo Stationdeg CelciusAir temperature
PressureMeteo StationPaAtmospheric pressure
HumidityMeteo Station%Relative humidity
Missing or incorrect values are displayed as -999
Metereological data collected by the RV Zeeleeuw from 2003-05-07 06:49:26 to 2003-05-08 14:45:34
                                                                                    Next 1000 lines
Time Latitude Longitude Speed Direction Temperature Pressure Humidity
2003-05-07 06:49:32 51°13.6 2°56.11 1.9 298 10.6 102630 66
2003-05-07 06:49:36 51°13.6 2°56.11 2 338 10.6 102630 66
2003-05-07 06:49:42 51°13.6 2°56.11 2.2 331 10.6 102630 66
2003-05-07 06:49:48 51°13.6 2°56.11 2.5 320 10.6 102630 66
2003-05-07 06:49:52 51°13.6 2°56.11 2.4 326 10.7 102630 65
2003-05-07 06:49:56 51°13.6 2°56.11 3.1 319 10.7 102630 65
2003-05-07 06:50:02 51°13.6 2°56.1 3.5 308 10.7 102630 66
2003-05-07 06:50:08 51°13.6 2°56.1 2.8 310 10.7 102630 66
2003-05-07 06:50:12 51°13.6 2°56.11 2.3 295 10.7 102630 66
2003-05-07 06:50:16 51°13.6 2°56.11 2.5 301 10.7 102630 66
2003-05-07 06:50:22 51°13.6 2°56.11 2.6 288 10.7 102630 66
2003-05-07 06:50:28 51°13.6 2°56.11 2.5 304 10.7 102630 66
2003-05-07 06:50:32 51°13.6 2°56.1 2.8 289 10.7 102630 65
2003-05-07 06:50:36 51°13.6 2°56.1 3.2 303 10.7 102630 65
2003-05-07 06:50:42 51°13.6 2°56.11 2.4 291 10.7 102630 65
2003-05-07 06:50:48 51°13.6 2°56.1 2.3 279 10.7 102630 65
2003-05-07 06:50:52 51°13.6 2°56.1 2.6 295 10.7 102630 65
2003-05-07 06:50:56 51°13.6 2°56.1 3 294 10.7 102630 65
2003-05-07 06:51:02 51°13.6 2°56.1 3.5 297 10.7 102630 65
2003-05-07 06:51:08 51°13.6 2°56.1 3.3 307 10.7 102630 65
2003-05-07 06:51:12 51°13.6 2°56.1 3.3 300 10.7 102630 66
2003-05-07 06:51:16 51°13.6 2°56.1 3.6 300 10.7 102630 66
2003-05-07 06:51:22 51°13.6 2°56.1 3.4 293 10.7 102630 66
2003-05-07 06:51:26 51°13.6 2°56.1 3 287 10.7 102630 66
2003-05-07 06:51:32 51°13.6 2°56.1 3.3 290 10.7 102630 65
2003-05-07 06:51:36 51°13.6 2°56.1 4.1 287 10.7 102630 65
2003-05-07 06:51:42 51°13.6 2°56.1 3.4 286 10.7 102630 65
2003-05-07 06:51:48 51°13.6 2°56.1 3.2 299 10.7 102630 65
2003-05-07 06:51:52 51°13.6 2°56.1 2.8 284 10.7 102630 65
2003-05-07 06:51:56 51°13.6 2°56.1 2.6 259 10.7 102630 65
2003-05-07 06:52:02 51°13.6 2°56.1 2.3 295 10.7 102630 65
2003-05-07 06:52:08 51°13.6 2°56.1 2.9 278 10.7 102630 65
2003-05-07 06:52:12 51°13.6 2°56.1 2.8 274 10.7 102630 65
2003-05-07 06:52:16 51°13.6 2°56.1 2.7 297 10.7 102630 65
2003-05-07 06:52:22 51°13.6 2°56.09 2.9 290 10.7 102630 65
2003-05-07 06:52:28 51°13.61 2°56.09 2.2 278 10.7 102630 65
2003-05-07 06:52:34 51°13.61 2°56.08 2.3 271 10.7 102630 65
2003-05-07 06:52:38 51°13.61 2°56.08 2.8 303 10.7 102630 65
2003-05-07 06:52:44 51°13.61 2°56.07 2.3 277 10.7 102630 65
2003-05-07 06:52:50 51°13.61 2°56.06 2.1 251 10.7 102630 65
2003-05-07 06:52:56 51°13.61 2°56.06 1.8 250 10.7 102630 65
2003-05-07 06:53:02 51°13.62 2°56.05 2.1 266 10.7 102630 65
2003-05-07 06:53:08 51°13.62 2°56.04 2.3 241 10.7 102630 65
2003-05-07 06:53:12 51°13.62 2°56.04 2.6 251 10.7 102630 65
2003-05-07 06:53:18 51°13.62 2°56.03 2.2 230 10.7 102630 66
2003-05-07 06:53:22 51°13.62 2°56.02 2.3 238 10.7 102630 66
2003-05-07 06:53:28 51°13.62 2°56.01 1.8 243 10.7 102630 66
2003-05-07 06:53:32 51°13.63 2°56 2.1 217 10.7 102630 66
2003-05-07 06:53:38 51°13.63 2°55.99 3 233 10.7 102630 66
2003-05-07 06:53:42 51°13.63 2°55.99 2.9 231 10.7 102630 66
2003-05-07 06:53:48 51°13.63 2°55.98 2.2 245 10.8 102630 66
2003-05-07 06:53:52 51°13.63 2°55.97 2.1 237 10.8 102630 66
2003-05-07 06:53:58 51°13.64 2°55.96 1.9 221 10.8 102630 66
2003-05-07 06:54:02 51°13.64 2°55.95 2.6 213 10.8 102630 66
2003-05-07 06:54:08 51°13.64 2°55.94 2.5 219 10.8 102630 66
2003-05-07 06:54:12 51°13.64 2°55.94 2.2 218 10.8 102630 66
2003-05-07 06:54:18 51°13.65 2°55.92 2.7 227 10.8 102630 66
2003-05-07 06:54:22 51°13.65 2°55.92 2.4 232 10.8 102630 66
2003-05-07 06:54:28 51°13.65 2°55.9 2.2 243 10.8 102630 66
2003-05-07 06:54:32 51°13.65 2°55.9 2 266 10.8 102630 66
2003-05-07 06:54:36 51°13.65 2°55.89 1.9 261 10.8 102630 65
2003-05-07 06:54:42 51°13.66 2°55.88 2 254 10.8 102630 65
2003-05-07 06:54:48 51°13.66 2°55.87 1.6 249 10.8 102630 65
2003-05-07 06:54:52 51°13.66 2°55.86 0.9 204 10.8 102630 65
2003-05-07 06:54:58 51°13.66 2°55.85 1.8 195 10.8 102640 65
2003-05-07 06:55:02 51°13.67 2°55.84 2.8 210 10.8 102640 65
2003-05-07 06:55:08 51°13.67 2°55.83 3.3 211 10.8 102630 65
2003-05-07 06:55:12 51°13.67 2°55.83 3 220 10.8 102630 65
2003-05-07 06:55:16 51°13.67 2°55.82 3 221 10.8 102630 66
2003-05-07 06:55:22 51°13.67 2°55.81 3.2 208 10.8 102630 66
2003-05-07 06:55:26 51°13.67 2°55.81 3.1 216 10.8 102630 66
2003-05-07 06:55:32 51°13.68 2°55.8 3.3 224 10.8 102630 66
2003-05-07 06:55:36 51°13.68 2°55.79 2.9 224 10.9 102630 66
2003-05-07 06:55:40 51°13.68 2°55.79 3 214 10.9 102630 66
2003-05-07 06:55:46 51°13.68 2°55.78 2.6 209 10.9 102630 66
2003-05-07 06:55:50 51°13.68 2°55.78 2.6 200 10.9 102630 66
2003-05-07 06:55:54 51°13.68 2°55.78 2.3 208 10.9 102640 66
2003-05-07 06:56:00 51°13.68 2°55.77 2.7 214 10.9 102640 66
2003-05-07 06:56:04 51°13.68 2°55.77 2.7 227 10.9 102630 66
2003-05-07 06:56:08 51°13.68 2°55.77 2.4 248 10.9 102630 66
2003-05-07 06:56:12 51°13.68 2°55.77 2.1 232 10.9 102640 65
2003-05-07 06:56:18 51°13.68 2°55.77 2.4 226 10.9 102640 65
2003-05-07 06:56:22 51°13.68 2°55.77 2.2 246 10.9 102640 65
2003-05-07 06:56:28 51°13.68 2°55.77 2.1 203 10.9 102640 65
2003-05-07 06:56:32 51°13.68 2°55.77 2.3 220 10.9 102640 65
2003-05-07 06:56:38 51°13.68 2°55.78 2 210 10.9 102640 65
2003-05-07 06:56:42 51°13.69 2°55.78 2 203 10.9 102640 66
2003-05-07 06:56:48 51°13.69 2°55.78 1.5 203 10.9 102640 66
2003-05-07 06:56:52 51°13.69 2°55.78 1.9 193 10.9 102630 66
2003-05-07 06:56:56 51°13.69 2°55.78 1.4 168 10.9 102630 66
2003-05-07 06:57:02 51°13.69 2°55.78 1 152 10.9 102640 66
2003-05-07 06:57:08 51°13.7 2°55.78 1.2 144 10.9 102640 66
2003-05-07 06:57:12 51°13.7 2°55.78 1.1 84 10.9 102640 65
2003-05-07 06:57:16 51°13.7 2°55.78 1 75 10.9 102640 65
2003-05-07 06:57:22 51°13.71 2°55.78 0.9 134 10.9 102640 65
2003-05-07 06:57:28 51°13.71 2°55.78 1.4 25 10.9 102640 65
2003-05-07 06:57:32 51°13.71 2°55.78 1.5 50 10.9 102640 65
2003-05-07 06:57:36 51°13.72 2°55.78 1.7 74 10.9 102640 65
2003-05-07 06:57:42 51°13.72 2°55.78 1.5 117 10.9 102640 65
2003-05-07 06:57:48 51°13.72 2°55.77 2.4 87 10.9 102640 65
2003-05-07 06:57:52 51°13.73 2°55.77 2.4 77 10.9 102630 66
2003-05-07 06:57:56 51°13.73 2°55.77 2.2 76 10.9 102630 66
2003-05-07 06:58:02 51°13.73 2°55.76 2.7 64 10.9 102640 66
2003-05-07 06:58:08 51°13.74 2°55.76 2.6 82 10.9 102640 66
2003-05-07 06:58:12 51°13.74 2°55.75 2.6 86 10.9 102640 65
2003-05-07 06:58:16 51°13.74 2°55.75 2.3 77 10.9 102640 65
2003-05-07 06:58:22 51°13.75 2°55.74 2.2 67 11 102640 65
2003-05-07 06:58:28 51°13.75 2°55.74 2.8 62 11 102640 65
2003-05-07 06:58:32 51°13.76 2°55.73 2.5 67 11 102640 65
2003-05-07 06:58:36 51°13.76 2°55.73 2.7 85 11 102640 65
2003-05-07 06:58:42 51°13.76 2°55.72 2.3 89 11 102640 65
2003-05-07 06:58:48 51°13.77 2°55.71 1.8 72 11 102640 65
2003-05-07 06:58:52 51°13.77 2°55.7 1.4 57 11 102640 65
2003-05-07 06:58:56 51°13.78 2°55.7 2.4 85 11 102640 65
2003-05-07 06:59:02 51°13.78 2°55.69 2.1 61 11 102640 65
2003-05-07 06:59:08 51°13.79 2°55.68 2.3 36 11 102640 65
2003-05-07 06:59:12 51°13.8 2°55.67 1.9 46 11 102640 65
2003-05-07 06:59:16 51°13.8 2°55.67 2.1 48 11 102640 65
2003-05-07 06:59:22 51°13.81 2°55.66 1.8 63 11.1 102640 65
2003-05-07 06:59:28 51°13.82 2°55.65 1.5 33 11.1 102640 65
2003-05-07 06:59:32 51°13.83 2°55.64 1.8 14 11.1 102640 65
2003-05-07 06:59:36 51°13.83 2°55.64 1.4 8 11.1 102640 65
2003-05-07 06:59:42 51°13.84 2°55.63 1.2 12 11.1 102640 65
2003-05-07 06:59:48 51°13.85 2°55.62 1 7 11.1 102640 65
2003-05-07 06:59:52 51°13.86 2°55.62 0.7 10 11.2 102640 65
2003-05-07 06:59:56 51°13.87 2°55.61 2 11 11.2 102640 65
2003-05-07 07:00:02 51°13.88 2°55.61 2.1 23 11.2 102640 65
2003-05-07 07:00:08 51°13.89 2°55.6 2.2 13 11.2 102640 65
2003-05-07 07:00:12 51°13.9 2°55.6 2.8 22 11.2 102640 65
2003-05-07 07:00:16 51°13.91 2°55.59 2.7 10 11.2 102640 65
2003-05-07 07:00:22 51°13.92 2°55.58 2.7 358 11.2 102640 64
2003-05-07 07:00:28 51°13.93 2°55.58 2.8 334 11.2 102640 64
2003-05-07 07:00:32 51°13.94 2°55.57 2.3 340 11.2 102640 64
2003-05-07 07:00:38 51°13.95 2°55.56 2 347 11.2 102640 64
2003-05-07 07:00:42 51°13.96 2°55.56 2.4 348 11.2 102640 63
2003-05-07 07:00:48 51°13.97 2°55.55 2.7 342 11.2 102640 63
2003-05-07 07:00:52 51°13.98 2°55.55 2.2 346 11.2 102640 63
2003-05-07 07:00:56 51°13.98 2°55.54 1.5 22 11.2 102640 63
2003-05-07 07:01:02 51°14 2°55.54 1.4 22 11.2 102640 63
2003-05-07 07:01:08 51°14.01 2°55.53 1.7 334 11.2 102640 63
2003-05-07 07:01:12 51°14.02 2°55.52 2 346 11.3 102640 64
2003-05-07 07:01:16 51°14.02 2°55.52 2.4 349 11.3 102640 64
2003-05-07 07:01:22 51°14.04 2°55.51 2.4 355 11.3 102640 64
2003-05-07 07:01:28 51°14.05 2°55.5 2.5 6 11.3 102640 64
2003-05-07 07:01:32 51°14.06 2°55.5 2 6 11.3 102640 64
2003-05-07 07:01:38 51°14.07 2°55.49 2.9 16 11.3 102640 64
2003-05-07 07:01:42 51°14.08 2°55.48 2.5 4 11.3 102640 63
2003-05-07 07:01:48 51°14.09 2°55.47 2.8 353 11.3 102640 63
2003-05-07 07:01:52 51°14.09 2°55.47 2.5   11.3 102640 63
2003-05-07 07:01:56 51°14.1 2°55.46 2.4 3 11.3 102640 63
2003-05-07 07:02:02 51°14.11 2°55.45 2.6 359 11.3 102640 63
2003-05-07 07:02:08 51°14.12 2°55.44 2.8 357 11.3 102640 63
2003-05-07 07:02:12 51°14.13 2°55.43 3.7   11.3 102640 62
2003-05-07 07:02:18 51°14.14 2°55.42 3.7 8 11.3 102640 62
2003-05-07 07:02:24 51°14.16 2°55.41 4.1 1 11.3 102640 62
2003-05-07 07:02:28 51°14.16 2°55.4 3.5   11.3 102640 62
2003-05-07 07:02:32 51°14.17 2°55.39 4 9 11.4 102640 63
2003-05-07 07:02:38 51°14.18 2°55.38 4.3 9 11.4 102640 63
2003-05-07 07:02:42 51°14.19 2°55.37 4.2   11.4 102640 63
2003-05-07 07:02:48 51°14.2 2°55.36 3.9 11 11.4 102640 63
2003-05-07 07:02:52 51°14.21 2°55.35 3.8 18 11.4 102640 63
2003-05-07 07:02:58 51°14.22 2°55.34 4.2 8 11.4 102640 63
2003-05-07 07:03:04 51°14.23 2°55.32 5.1 9 11.4 102640 62
2003-05-07 07:03:08 51°14.24 2°55.31 4.4 20 11.4 102640 62
2003-05-07 07:03:12 51°14.24 2°55.3 4.1 22 11.4 102640 62
2003-05-07 07:03:16 51°14.25 2°55.29 3.3 15 11.4 102640 62
2003-05-07 07:03:22 51°14.26 2°55.28 4.2 21 11.4 102640 62
2003-05-07 07:03:28 51°14.27 2°55.26 4.1 4 11.4 102640 62
2003-05-07 07:03:32 51°14.27 2°55.25 3.8 3 11.4 102640 62
2003-05-07 07:03:38 51°14.28 2°55.24 4.1 2 11.4 102640 62
2003-05-07 07:03:42 51°14.29 2°55.22 4 6 11.4 102640 61
2003-05-07 07:03:48 51°14.3 2°55.21 4 6 11.4 102640 61
2003-05-07 07:03:52 51°14.3 2°55.19 4   11.5 102640 61
2003-05-07 07:03:56 51°14.31 2°55.18 5 28 11.5 102640 61
2003-05-07 07:04:02 51°14.32 2°55.16 4.6 18 11.5 102650 61
2003-05-07 07:04:08 51°14.33 2°55.14 4.5 31 11.5 102650 61
2003-05-07 07:04:12 51°14.33 2°55.13 4.1 14 11.5 102640 61
2003-05-07 07:04:16 51°14.34 2°55.12 4.9 16 11.5 102640 61
2003-05-07 07:04:22 51°14.35 2°55.1 4.6 15 11.5 102640 61
2003-05-07 07:04:28 51°14.36 2°55.08 4.6 353 11.5 102640 61
2003-05-07 07:04:32 51°14.37 2°55.06 5.2 14 11.5 102640 61
2003-05-07 07:04:36 51°14.38 2°55.05 4.7 12 11.5 102640 61
2003-05-07 07:04:42 51°14.39 2°55.03 5 13 11.5 102640 61
2003-05-07 07:04:48 51°14.4 2°55.01 4.8 13 11.5 102640 61
2003-05-07 07:04:52 51°14.41 2°54.99 4.8 19 11.5 102640 61
2003-05-07 07:04:56 51°14.42 2°54.98 4.9 23 11.5 102640 61
2003-05-07 07:05:02 51°14.43 2°54.96 4.4 25 11.5 102640 61
2003-05-07 07:05:08 51°14.45 2°54.95 4.6 24 11.5 102640 61
2003-05-07 07:05:12 51°14.46 2°54.94 4.8 26 11.5 102640 61
2003-05-07 07:05:16 51°14.47 2°54.93 5.7 9 11.5 102640 61
2003-05-07 07:05:22 51°14.48 2°54.91 6.1 17 11.5 102640 61
2003-05-07 07:05:28 51°14.5 2°54.9 6.5 20 11.5 102640 61
2003-05-07 07:05:32 51°14.51 2°54.89 6.6 18 11.5 102640 61
2003-05-07 07:05:36 51°14.52 2°54.88 6.4 18 11.5 102640 61
2003-05-07 07:05:42 51°14.54 2°54.87 6.6 16 11.5 102640 62
2003-05-07 07:05:48 51°14.55 2°54.85 6.8 17 11.5 102640 62
2003-05-07 07:05:52 51°14.56 2°54.84 6.4 16 11.6 102640 63
2003-05-07 07:05:56 51°14.57 2°54.83 6.1 18 11.6 102640 63
2003-05-07 07:06:02 51°14.59 2°54.82 5.9 18 11.6 102640 64
2003-05-07 07:06:08 51°14.61 2°54.82 5.4 18 11.6 102640 64
2003-05-07 07:06:12 51°14.62 2°54.81 5 20 11.5 102640 64
2003-05-07 07:06:16 51°14.63 2°54.81 4.6 24 11.5 102640 64
2003-05-07 07:06:22 51°14.65 2°54.81 4.7 24 11.5 102640 65
2003-05-07 07:06:28 51°14.66 2°54.81 4.2 26 11.5 102640 65
2003-05-07 07:06:32 51°14.67 2°54.81 3.7 29 11.5 102640 65
2003-05-07 07:06:36 51°14.68 2°54.81 3.6 29 11.5 102640 65
2003-05-07 07:06:42 51°14.69 2°54.81 3.2 30 11.4 102640 65
2003-05-07 07:06:48 51°14.7 2°54.81 3 39 11.4 102640 65
2003-05-07 07:06:52 51°14.71 2°54.81 2.8 34 11.4 102640 65
2003-05-07 07:06:56 51°14.72 2°54.81 2.8 42 11.4 102640 65
2003-05-07 07:07:02 51°14.73 2°54.81 2.6 45 11.4 102640 66
2003-05-07 07:07:08 51°14.74 2°54.82 2 55 11.4 102640 66
2003-05-07 07:07:12 51°14.74 2°54.82 1.8 62 11.4 102650 66
2003-05-07 07:07:16 51°14.75 2°54.82 2 67 11.4 102650 66
2003-05-07 07:07:22 51°14.75 2°54.82 1.8 69 11.3 102650 66
2003-05-07 07:07:28 51°14.76 2°54.83 1.9 70 11.3 102650 66
2003-05-07 07:07:32 51°14.76 2°54.83 2 77 11.3 102650 66
2003-05-07 07:07:36 51°14.76 2°54.83 2.2 84 11.3 102650 66
2003-05-07 07:07:42 51°14.77 2°54.83 1.8 82 11.3 102650 66
2003-05-07 07:07:48 51°14.77 2°54.83 2.1 70 11.3 102650 66
2003-05-07 07:07:52 51°14.78 2°54.83 1.9 75 11.3 102650 66
2003-05-07 07:07:56 51°14.78 2°54.83 2.1 76 11.3 102650 66
2003-05-07 07:08:02 51°14.79 2°54.83 2.4 77 11.3 102650 66
2003-05-07 07:08:08 51°14.79 2°54.84 2.2 70 11.3 102650 66
2003-05-07 07:08:12 51°14.79 2°54.84 2.1 73 11.3 102650 66
2003-05-07 07:08:16 51°14.8 2°54.84 2.4 78 11.3 102650 66
2003-05-07 07:08:22 51°14.8 2°54.83 2.4 84 11.3 102650 67
2003-05-07 07:08:28 51°14.8 2°54.83 2.2 83 11.3 102650 67
2003-05-07 07:08:32 51°14.8 2°54.83 2.2 84 11.3 102650 67
2003-05-07 07:08:36 51°14.81 2°54.83 2.2 77 11.3 102650 67
2003-05-07 07:08:42 51°14.81 2°54.83 2.1 82 11.3 102650 67
2003-05-07 07:08:48 51°14.81 2°54.83 2.3 86 11.3 102650 67
2003-05-07 07:08:52 51°14.81 2°54.83 2.9 90 11.3 102650 67
2003-05-07 07:08:56 51°14.82 2°54.83 2.8 90 11.3 102650 67
2003-05-07 07:09:02 51°14.82 2°54.83 2.6 89 11.3 102650 67
2003-05-07 07:09:08 51°14.82 2°54.83 2.8 89 11.3 102650 67
2003-05-07 07:09:12 51°14.82 2°54.83 2.6 88 11.3 102650 67
2003-05-07 07:09:16 51°14.83 2°54.83 2.7 96 11.3 102650 67
2003-05-07 07:09:22 51°14.83 2°54.83 2.3 94 11.3 102650 67
2003-05-07 07:09:28 51°14.83 2°54.83 2.5 88 11.3 102650 67
2003-05-07 07:09:32 51°14.83 2°54.83 2.4 89 11.4 102650 67
2003-05-07 07:09:36 51°14.84 2°54.83 2.7 86 11.4 102650 67
2003-05-07 07:09:42 51°14.84 2°54.83 2.6 87 11.3 102650 67
2003-05-07 07:09:48 51°14.84 2°54.83 2.1 86 11.3 102650 67
2003-05-07 07:09:52 51°14.84 2°54.83 1.9 83 11.3 102650 66
2003-05-07 07:09:56 51°14.84 2°54.83 2.3 83 11.3 102650 66
2003-05-07 07:10:02 51°14.85 2°54.83 2.2 84 11.3 102650 66
2003-05-07 07:10:08 51°14.85 2°54.82 2.6 85 11.3 102650 66
2003-05-07 07:10:12 51°14.85 2°54.82 2.5 86 11.3 102650 66
2003-05-07 07:10:16 51°14.85 2°54.82 2.5 81 11.3 102650 66
2003-05-07 07:10:22 51°14.85 2°54.82 2.8 82 11.3 102650 67
2003-05-07 07:10:28 51°14.86 2°54.82 2.8 72 11.3 102650 67
2003-05-07 07:10:32 51°14.86 2°54.82 2.9 69 11.3 102650 67
2003-05-07 07:10:36 51°14.86 2°54.82 2.6 71 11.3 102650 67
2003-05-07 07:10:42 51°14.86 2°54.82 2.7 69 11.3 102650 67
2003-05-07 07:10:48 51°14.86 2°54.82 2.6 79 11.3 102650 67
2003-05-07 07:10:52 51°14.87 2°54.82 2.9 85 11.3 102650 67
2003-05-07 07:10:56 51°14.87 2°54.81 2.7 74 11.3 102650 67
2003-05-07 07:11:02 51°14.87 2°54.81 2.7 72 11.3 102650 67
2003-05-07 07:11:08 51°14.87 2°54.81 2.8 68 11.3 102650 67
2003-05-07 07:11:12 51°14.87 2°54.81 3.2 70 11.3 102650 67
2003-05-07 07:11:16 51°14.88 2°54.81 3 76 11.3 102650 67
2003-05-07 07:11:22 51°14.88 2°54.81 2.9 76 11.3 102650 67
2003-05-07 07:11:28 51°14.88 2°54.81 2.9 70 11.3 102650 67
2003-05-07 07:11:32 51°14.88 2°54.81 2.7 77 11.3 102650 68
2003-05-07 07:11:36 51°14.88 2°54.81 3 73 11.3 102650 68
2003-05-07 07:11:42 51°14.88 2°54.8 2.9 72 11.3 102650 68
2003-05-07 07:11:48 51°14.89 2°54.8 2.8 79 11.3 102650 68
2003-05-07 07:11:52 51°14.89 2°54.8 3.1 81 11.3 102650 67
2003-05-07 07:11:56 51°14.89 2°54.8 2.7 78 11.3 102650 67
2003-05-07 07:12:02 51°14.89 2°54.8 2.7 82 11.2 102650 67
2003-05-07 07:12:08 51°14.89 2°54.8 2.9 79 11.2 102650 67
2003-05-07 07:12:12 51°14.89 2°54.8 2.6 76 11.2 102650 68
2003-05-07 07:12:16 51°14.89 2°54.8 2.6 73 11.2 102650 68
2003-05-07 07:12:22 51°14.9 2°54.79 2.9 74 11.2 102650 68
2003-05-07 07:12:28 51°14.9 2°54.79 2.6 74 11.2 102650 68
2003-05-07 07:12:32 51°14.9 2°54.79 2.8 72 11.2 102650 67
2003-05-07 07:12:36 51°14.9 2°54.79 2.8 75 11.2 102650 67
2003-05-07 07:12:42 51°14.9 2°54.79 2.7 77 11.2 102650 67
2003-05-07 07:12:48 51°14.9 2°54.79 3 78 11.2 102650 67
2003-05-07 07:12:52 51°14.9 2°54.79 2.9 84 11.2 102650 67
2003-05-07 07:12:56 51°14.91 2°54.78 2.9 88 11.2 102650 67
2003-05-07 07:13:02 51°14.91 2°54.78 3 90 11.2 102650 67
2003-05-07 07:13:08 51°14.91 2°54.78 3 85 11.2 102650 67
2003-05-07 07:13:12 51°14.91 2°54.78 2.8 77 11.2 102650 68
2003-05-07 07:13:16 51°14.91 2°54.78 2.9 73 11.2 102650 68
2003-05-07 07:13:22 51°14.91 2°54.78 2.3 70 11.2 102650 68
2003-05-07 07:13:28 51°14.92 2°54.77 2.8 63 11.2 102650 68
2003-05-07 07:13:32 51°14.92 2°54.77 3 60 11.2 102650 68
2003-05-07 07:13:36 51°14.92 2°54.77 3.3 52 11.2 102650 68
2003-05-07 07:13:42 51°14.93 2°54.76 3.5 48 11.2 102650 68
2003-05-07 07:13:48 51°14.93 2°54.76 3.3 45 11.2 102650 68
2003-05-07 07:13:52 51°14.94 2°54.75 4 317 11.2 102650 68
2003-05-07 07:13:56 51°14.94 2°54.75 3.6 41 11.2 102650 68
2003-05-07 07:14:02 51°14.95 2°54.74 4.4 34 11.1 102650 68
2003-05-07 07:14:08 51°14.96 2°54.73 4.6 36 11.1 102650 68
2003-05-07 07:14:12 51°14.96 2°54.72 4.6 34 11.1 102650 68
2003-05-07 07:14:16 51°14.97 2°54.72 5 32 11.1 102650 68
2003-05-07 07:14:22 51°14.98 2°54.7 4.8 29 11.1 102640 67
2003-05-07 07:14:28 51°14.99 2°54.69 5 29 11.1 102640 67
2003-05-07 07:14:32 51°15 2°54.68 5.6 30 11.1 102640 68
2003-05-07 07:14:36 51°15 2°54.67 6 25 11.1 102640 68
2003-05-07 07:14:42 51°15.02 2°54.66 6 26 11 102640 68
2003-05-07 07:14:48 51°15.03 2°54.64 6.2 22 11 102640 68
2003-05-07 07:14:52 51°15.04 2°54.63 6.1 21 11 102640 68
2003-05-07 07:14:56 51°15.05 2°54.62 6.3 23 11 102640 68
2003-05-07 07:15:02 51°15.06 2°54.6 6.7 23 11 102640 68
2003-05-07 07:15:08 51°15.07 2°54.58 6.3 26 11 102640 68
2003-05-07 07:15:12 51°15.08 2°54.57 6.8 23 11 102640 68
2003-05-07 07:15:16 51°15.09 2°54.55 6.9 22 11 102640 68
2003-05-07 07:15:22 51°15.11 2°54.53 6.9 21 11 102640 68
2003-05-07 07:15:28 51°15.12 2°54.51 7.5 20 11 102640 68
2003-05-07 07:15:32 51°15.13 2°54.5 7.1 24 10.9 102640 68
2003-05-07 07:15:36 51°15.14 2°54.49 7.4 21 10.9 102640 68
2003-05-07 07:15:42 51°15.16 2°54.47 7.2 22 10.9 102630 67
2003-05-07 07:15:48 51°15.18 2°54.45 6.7 22 10.9 102630 67
2003-05-07 07:15:52 51°15.19 2°54.43 6.7 26 10.9 102640 68
2003-05-07 07:15:56 51°15.2 2°54.42 6.3 23 10.9 102640 68
2003-05-07 07:16:02 51°15.22 2°54.4 7.1 24 10.9 102640 68
2003-05-07 07:16:08 51°15.24 2°54.39 7.3 23 10.9 102640 68
2003-05-07 07:16:12 51°15.25 2°54.38 7.1 23 10.8 102630 67
2003-05-07 07:16:16 51°15.26 2°54.36 6.9 24 10.8 102630 67
2003-05-07 07:16:22 51°15.28 2°54.34 7.2 22 10.8 102640 68
2003-05-07 07:16:28 51°15.3 2°54.32 7.6 21 10.8 102640 68
2003-05-07 07:16:32 51°15.31 2°54.31 7.2 24 10.8 102630 68
2003-05-07 07:16:36 51°15.32 2°54.29 7.1 21 10.8 102630 68
2003-05-07 07:16:42 51°15.33 2°54.27 7.7 24 10.8 102630 68
2003-05-07 07:16:48 51°15.35 2°54.24 7.4 23 10.8 102630 68
2003-05-07 07:16:52 51°15.36 2°54.23 6.8 25 10.8 102630 68
2003-05-07 07:16:56 51°15.37 2°54.21 6.9 24 10.8 102630 68
2003-05-07 07:17:02 51°15.39 2°54.19 7.2 26 10.8 102630 68
2003-05-07 07:17:08 51°15.4 2°54.18 6.9 26 10.8 102630 68
2003-05-07 07:17:12 51°15.42 2°54.16 6.6 27 10.8 102630 68
2003-05-07 07:17:16 51°15.43 2°54.15 7.3 26 10.8 102630 68
2003-05-07 07:17:22 51°15.45 2°54.13 6.9 26 10.7 102640 68
2003-05-07 07:17:28 51°15.46 2°54.12 7 23 10.7 102640 68
2003-05-07 07:17:32 51°15.48 2°54.1 6.6 25 10.7 102630 68
2003-05-07 07:17:36 51°15.49 2°54.09 7.2 23 10.7 102630 68
2003-05-07 07:17:42 51°15.51 2°54.08 7.1 23 10.7 102630 68
2003-05-07 07:17:48 51°15.53 2°54.06 7.3 24 10.7 102630 68
2003-05-07 07:17:52 51°15.54 2°54.05 7.3 26 10.7 102630 68
2003-05-07 07:17:56 51°15.55 2°54.03 7.3 23 10.7 102630 68
2003-05-07 07:18:02 51°15.57 2°54.02 7.1 27 10.7 102630 68
2003-05-07 07:18:08 51°15.59 2°54 6.7 25 10.7 102630 68
2003-05-07 07:18:12 51°15.6 2°53.99 6.7 26 10.7 102630 68
2003-05-07 07:18:16 51°15.61 2°53.98 6.5 27 10.7 102630 68
2003-05-07 07:18:22 51°15.63 2°53.96 6.3 28 10.7 102630 68
2003-05-07 07:18:28 51°15.65 2°53.94 6.5 26 10.7 102630 68
2003-05-07 07:18:32 51°15.66 2°53.93 6.7 23 10.7 102630 68
2003-05-07 07:18:36 51°15.67 2°53.92 7.1 28 10.7 102630 68
2003-05-07 07:18:42 51°15.69 2°53.9 6.7 30 10.6 102640 68
2003-05-07 07:18:48 51°15.71 2°53.88 6.3 27 10.6 102640 68
2003-05-07 07:18:52 51°15.72 2°53.87 6.4 27 10.7 102640 68
2003-05-07 07:18:56 51°15.73 2°53.86 6.3 27 10.7 102640 68
2003-05-07 07:19:02 51°15.75 2°53.84 6.6 31 10.6 102640 68
2003-05-07 07:19:08 51°15.77 2°53.82 6.1 27 10.6 102640 68
2003-05-07 07:19:12 51°15.78 2°53.81 6.3 23 10.6 102630 67
2003-05-07 07:19:16 51°15.79 2°53.8 7 25 10.6 102630 67
2003-05-07 07:19:22 51°15.81 2°53.79 6.5 26 10.6 102640 67
2003-05-07 07:19:28 51°15.83 2°53.77 6.4 25 10.6 102640 67
2003-05-07 07:19:32 51°15.84 2°53.76 6.5 26 10.6 102640 67
2003-05-07 07:19:36 51°15.86 2°53.74 6.9 24 10.6 102640 67
2003-05-07 07:19:42 51°15.87 2°53.73 6.3 23 10.6 102630 67
2003-05-07 07:19:48 51°15.89 2°53.71 6.7 26 10.6 102630 67
2003-05-07 07:19:52 51°15.9 2°53.7 6.6 24 10.6 102640 67
2003-05-07 07:19:56 51°15.92 2°53.69 6.8 27 10.6 102640 67
2003-05-07 07:20:02 51°15.94 2°53.67 7.2 24 10.6 102640 67
2003-05-07 07:20:08 51°15.95 2°53.65 6.9 26 10.6 102640 67
2003-05-07 07:20:12 51°15.97 2°53.64 6.6 25 10.6 102640 67
2003-05-07 07:20:16 51°15.98 2°53.63 6.6 25 10.6 102640 67
2003-05-07 07:20:22 51°16 2°53.61 6.1 25 10.6 102640 67
2003-05-07 07:20:28 51°16.02 2°53.6 6.1 23 10.6 102640 67
2003-05-07 07:20:32 51°16.03 2°53.59 7.1 29 10.6 102630 67
2003-05-07 07:20:36 51°16.04 2°53.58 6.7 26 10.6 102630 67
2003-05-07 07:20:42 51°16.06 2°53.56 6.6 21 10.6 102640 67
2003-05-07 07:20:48 51°16.08 2°53.54 6.8 27 10.6 102640 67
2003-05-07 07:20:52 51°16.09 2°53.53 6.9 26 10.6 102640 67
2003-05-07 07:20:56 51°16.11 2°53.52 6.5 24 10.6 102640 67
2003-05-07 07:21:02 51°16.13 2°53.51 6.7 19 10.6 102640 67
2003-05-07 07:21:08 51°16.15 2°53.49 6.9 27 10.6 102640 67
2003-05-07 07:21:12 51°16.16 2°53.48 7.4 27 10.6 102640 67
2003-05-07 07:21:16 51°16.17 2°53.47 6.4 26 10.6 102640 67
2003-05-07 07:21:22 51°16.19 2°53.45 6.7 25 10.6 102640 67
2003-05-07 07:21:28 51°16.21 2°53.43 6.7 24 10.6 102640 67
2003-05-07 07:21:32 51°16.23 2°53.42 6.7 26 10.6 102640 66
2003-05-07 07:21:36 51°16.24 2°53.41 6.7 25 10.6 102640 66
2003-05-07 07:21:42 51°16.26 2°53.39 6.7 18 10.6 102640 66
2003-05-07 07:21:48 51°16.28 2°53.38 7.1 24 10.6 102640 66
2003-05-07 07:21:52 51°16.3 2°53.37 6.4 25 10.9 102640 67
2003-05-07 07:21:56 51°16.31 2°53.35 6.4 24 10.9 102640 67
2003-05-07 07:22:02 51°16.33 2°53.34 6.9 25 10.6 102640 67
2003-05-07 07:22:08 51°16.35 2°53.32 6.3 23 10.6 102640 67
2003-05-07 07:22:12 51°16.37 2°53.31 7.2 22 10.6 102640 67
2003-05-07 07:22:16 51°16.38 2°53.3 7 26 10.6 102640 67
2003-05-07 07:22:22 51°16.4 2°53.28 6.6 23 10.6 102640 67
2003-05-07 07:22:28 51°16.42 2°53.26 7.3 16 10.6 102640 67
2003-05-07 07:22:32 51°16.43 2°53.25 6.5 23 10.7 102640 67
2003-05-07 07:22:36 51°16.45 2°53.24 6.9 19 10.7 102640 67
2003-05-07 07:22:42 51°16.47 2°53.22 6.4 22 10.7 102640 67
2003-05-07 07:22:48 51°16.49 2°53.2 6 21 10.7 102640 67
2003-05-07 07:22:52 51°16.5 2°53.19 6.2 24 10.7 102640 67
2003-05-07 07:22:56 51°16.52 2°53.18 6.6 27 10.7 102640 67
2003-05-07 07:23:02 51°16.54 2°53.16 7 22 10.7 102650 67
2003-05-07 07:23:08 51°16.56 2°53.15 6.6 29 10.7 102650 67
2003-05-07 07:23:12 51°16.57 2°53.13 6.7 23 10.7 102640 66
2003-05-07 07:23:16 51°16.59 2°53.12 6.4 28 10.7 102640 66
2003-05-07 07:23:22 51°16.61 2°53.11 6.4 30 10.7 102640 66
2003-05-07 07:23:28 51°16.63 2°53.09 6.2 22 10.7 102640 66
2003-05-07 07:23:32 51°16.64 2°53.08 6 24 10.7 102640 66
2003-05-07 07:23:36 51°16.65 2°53.07 5.7 25 10.7 102640 66
2003-05-07 07:23:42 51°16.68 2°53.05 5.7 19 10.7 102640 66
2003-05-07 07:23:48 51°16.7 2°53.03 6.1 28 10.7 102640 66
2003-05-07 07:23:52 51°16.71 2°53.02 6.7 22 10.7 102640 66
2003-05-07 07:23:56 51°16.72 2°53.01 6.3 25 10.7 102640 66
2003-05-07 07:24:02 51°16.74 2°52.99 6 24 10.7 102650 67
2003-05-07 07:24:08 51°16.76 2°52.97 6.2 23 10.7 102650 67
2003-05-07 07:24:12 51°16.78 2°52.96 6.1 22 10.7 102640 67
2003-05-07 07:24:16 51°16.79 2°52.95 6 22 10.7 102640 67
2003-05-07 07:24:22 51°16.81 2°52.94 6.2 22 10.7 102640 66
2003-05-07 07:24:28 51°16.83 2°52.92 6.6 31 10.7 102640 66
2003-05-07 07:24:32 51°16.85 2°52.91 6.1 29 10.7 102640 66
2003-05-07 07:24:36 51°16.86 2°52.9 5.9 31 10.7 102640 66
2003-05-07 07:24:42 51°16.88 2°52.88 5.6 27 10.7 102650 66
2003-05-07 07:24:48 51°16.9 2°52.86 5.9 24 10.7 102650 66
2003-05-07 07:24:52 51°16.91 2°52.85 6.5 22 10.8 102650 66
2003-05-07 07:24:58 51°16.93 2°52.83 6.3 27 10.8 102650 66
2003-05-07 07:25:02 51°16.95 2°52.82 6 25 10.8 102650 66
2003-05-07 07:25:08 51°16.97 2°52.8 6.1 23 10.8 102650 66
2003-05-07 07:25:12 51°16.98 2°52.79 6.2 23 10.8 102650 66
2003-05-07 07:25:16 51°16.99 2°52.78 6.1 25 10.8 102650 66
2003-05-07 07:25:22 51°17.02 2°52.76 6 20 10.8 102650 66
2003-05-07 07:25:28 51°17.04 2°52.75 5.9 24 10.8 102650 66
2003-05-07 07:25:32 51°17.05 2°52.74 5.9 25 10.8 102650 67
2003-05-07 07:25:36 51°17.07 2°52.73 5.5 20 10.8 102650 67
2003-05-07 07:25:42 51°17.09 2°52.71 5.6 16 10.9 102650 67
2003-05-07 07:25:48 51°17.11 2°52.7 5.4 23 10.9 102650 67
2003-05-07 07:25:52 51°17.13 2°52.69 5.5 24 10.8 102650 66
2003-05-07 07:25:56 51°17.14 2°52.68 5.3 24 10.8 102650 66
2003-05-07 07:26:02 51°17.16 2°52.67 5.6 23 10.9 102650 66
2003-05-07 07:26:08 51°17.18 2°52.66 5.7 28 10.9 102650 66
2003-05-07 07:26:12 51°17.2 2°52.65 5.3 21 10.9 102650 66
2003-05-07 07:26:16 51°17.21 2°52.64 5.7 26 10.9 102650 66
2003-05-07 07:26:22 51°17.23 2°52.63 5.6 25 10.9 102650 66
2003-05-07 07:26:28 51°17.26 2°52.61 5.7 27 10.9 102650 66
2003-05-07 07:26:32 51°17.27 2°52.6 5.4 26 10.9 102650 66
2003-05-07 07:26:36 51°17.28 2°52.59 4.7 25 10.9 102650 66
2003-05-07 07:26:42 51°17.31 2°52.58 5 22 10.9 102650 65
2003-05-07 07:26:48 51°17.33 2°52.57 4.6 24 10.9 102650 65
2003-05-07 07:26:52 51°17.35 2°52.57 5.1 24 10.9 102650 66
2003-05-07 07:26:56 51°17.36 2°52.56 5.3 25 10.9 102650 66
2003-05-07 07:27:02 51°17.38 2°52.55 5.3 18 10.9 102650 65
2003-05-07 07:27:08 51°17.41 2°52.54 5 20 10.9 102650 65
2003-05-07 07:27:12 51°17.42 2°52.54 5.4 22 10.9 102650 66
2003-05-07 07:27:16 51°17.44 2°52.53 5.1 18 10.9 102650 66
2003-05-07 07:27:22 51°17.46 2°52.52 5.2 21 11 102650 65
2003-05-07 07:27:28 51°17.48 2°52.51 5.3 20 11 102650 65
2003-05-07 07:27:32 51°17.5 2°52.5 5.5 25 11 102650 65
2003-05-07 07:27:36 51°17.51 2°52.49 4.8 26 11 102650 65
2003-05-07 07:27:42 51°17.53 2°52.48 4.6 24 11 102650 65
2003-05-07 07:27:48 51°17.56 2°52.47 4.7 21 11 102650 65
2003-05-07 07:27:52 51°17.57 2°52.47 4.5 18 11 102650 66
2003-05-07 07:27:58 51°17.59 2°52.46 4.2 23 11 102650 66
2003-05-07 07:28:02 51°17.61 2°52.46 4.2 19 11 102650 65
2003-05-07 07:28:08 51°17.63 2°52.45 3.9 20 11 102650 65
2003-05-07 07:28:12 51°17.65 2°52.45 4.4 17 11 102650 65
2003-05-07 07:28:16 51°17.66 2°52.44 4.3 11 11 102650 65
2003-05-07 07:28:22 51°17.69 2°52.44 4.4 20 11 102650 65
2003-05-07 07:28:28 51°17.71 2°52.43 4 16 11 102650 65
2003-05-07 07:28:32 51°17.72 2°52.43 4.2 11 11 102650 65
2003-05-07 07:28:36 51°17.74 2°52.43 4.1 9 11 102650 65
2003-05-07 07:28:42 51°17.76 2°52.43 4 9 11 102650 65
2003-05-07 07:28:48 51°17.79 2°52.43 4.1 12 11 102650 65
2003-05-07 07:28:52 51°17.8 2°52.43 4.2 12 11.1 102660 65
2003-05-07 07:28:56 51°17.82 2°52.43 3.9 12 11.1 102660 65
2003-05-07 07:29:02 51°17.84 2°52.43 3.5 10 11.1 102650 65
2003-05-07 07:29:08 51°17.86 2°52.43 3.8 4 11.1 102650 65
2003-05-07 07:29:12 51°17.88 2°52.43 4.2 6 11.1 102650 65
2003-05-07 07:29:16 51°17.89 2°52.43 4 355 11.1 102650 65
2003-05-07 07:29:22 51°17.92 2°52.44 3.7 359 11.1 102650 65
2003-05-07 07:29:28 51°17.94 2°52.44 3.4 9 11.1 102650 65
2003-05-07 07:29:32 51°17.96 2°52.44 3.4 4 11.1 102660 66
2003-05-07 07:29:36 51°17.97 2°52.45 3.7 358 11.1 102660 66
2003-05-07 07:29:42 51°17.99 2°52.45 3.5 354 11.1 102650 66
2003-05-07 07:29:48 51°18.02 2°52.46 3.5 351 11.1 102650 66
2003-05-07 07:29:52 51°18.03 2°52.47 3.5 352 11.1 102650 65
2003-05-07 07:29:56 51°18.04 2°52.48 3.3 347 11.1 102650 65
2003-05-07 07:30:02 51°18.07 2°52.49 3.6 342 11.1 102650 65
2003-05-07 07:30:08 51°18.09 2°52.51 3.7 336 11.1 102650 65
2003-05-07 07:30:12 51°18.1 2°52.52 3.6 342 11.1 102660 64
2003-05-07 07:30:16 51°18.11 2°52.53 3.9 329 11.1 102660 64
2003-05-07 07:30:22 51°18.13 2°52.56 3.8 331 11.1 102660 65
2003-05-07 07:30:28 51°18.15 2°52.58 4.5 335 11.1 102660 65
2003-05-07 07:30:32 51°18.16 2°52.6 4.2 324 11.1 102660 64
2003-05-07 07:30:36 51°18.17 2°52.62 4.5 328 11.1 102660 64
2003-05-07 07:30:42 51°18.18 2°52.64 4.6 328 11.1 102660 64
2003-05-07 07:30:48 51°18.2 2°52.67 5 320 11.1 102660 64
2003-05-07 07:30:52 51°18.21 2°52.69 5 322 11.1 102660 65
2003-05-07 07:30:56 51°18.22 2°52.71 5.1 326 11.1 102660 65
2003-05-07 07:31:02 51°18.23 2°52.73 5 327 11.1 102660 65
2003-05-07 07:31:08 51°18.25 2°52.76 4.7 328 11.1 102660 65
2003-05-07 07:31:12 51°18.26 2°52.78 4.6 330 11.1 102660 65
2003-05-07 07:31:16 51°18.27 2°52.8 4.2 331 11.1 102660 65
2003-05-07 07:31:22 51°18.28 2°52.82 4.2 326 11.1 102660 66
2003-05-07 07:31:28 51°18.3 2°52.85 4.7 329 11.1 102660 66
2003-05-07 07:31:32 51°18.31 2°52.87 4.6 329 11.1 102660 66
2003-05-07 07:31:36 51°18.32 2°52.89 4.2 321 11.1 102660 66
2003-05-07 07:31:42 51°18.33 2°52.91 4.1 323 11 102650 65
2003-05-07 07:31:48 51°18.34 2°52.94 4.6 329 11 102650 65
2003-05-07 07:31:52 51°18.35 2°52.96 4.7 328 11 102660 65
2003-05-07 07:31:56 51°18.36 2°52.98 4.8 317 11 102660 65
2003-05-07 07:32:02 51°18.37 2°53.01 5.3 321 11 102660 64
2003-05-07 07:32:08 51°18.38 2°53.04 5 321 11 102660 64
2003-05-07 07:32:12 51°18.39 2°53.07 5.5 314 11 102660 65
2003-05-07 07:32:16 51°18.4 2°53.09 5.2 319 11 102660 65
2003-05-07 07:32:22 51°18.41 2°53.12 6.1 325 11 102660 64
2003-05-07 07:32:28 51°18.41 2°53.15 5.6 318 11 102660 64
2003-05-07 07:32:32 51°18.42 2°53.17 5.5 321 11 102660 65
2003-05-07 07:32:36 51°18.43 2°53.2 5.5 313 11 102660 65
2003-05-07 07:32:42 51°18.44 2°53.23 5.7 317 11 102660 65
2003-05-07 07:32:48 51°18.45 2°53.26 5.7 321 11 102660 65
2003-05-07 07:32:52 51°18.45 2°53.28 5.7 319 11 102650 65
2003-05-07 07:32:56 51°18.46 2°53.31 5.6 323 11 102650 65
2003-05-07 07:33:02 51°18.47 2°53.34 6.2 320 11 102660 64
2003-05-07 07:33:08 51°18.47 2°53.37 5.5 317 11 102660 64
2003-05-07 07:33:12 51°18.48 2°53.39 5.7 311 11 102650 66
2003-05-07 07:33:16 51°18.49 2°53.42 5.8 316 11 102650 66
2003-05-07 07:33:22 51°18.49 2°53.45 5.8 322 10.9 102650 66
2003-05-07 07:33:28 51°18.5 2°53.48 5.5 314 10.9 102650 66
2003-05-07 07:33:32 51°18.51 2°53.5 5.5 320 10.9 102650 65
2003-05-07 07:33:38 51°18.52 2°53.54 5.7 318 10.9 102650 65
2003-05-07 07:33:42 51°18.52 2°53.56 5.5 315 10.9 102650 65
2003-05-07 07:33:48 51°18.53 2°53.59 5.5 317 10.9 102650 65
2003-05-07 07:33:52 51°18.54 2°53.61 5.4 319 10.9 102650 64
2003-05-07 07:33:56 51°18.54 2°53.64 5.2 309 10.9 102650 64
2003-05-07 07:34:02 51°18.55 2°53.67 5.2 311 10.9 102660 65
2003-05-07 07:34:08 51°18.56 2°53.7 5.3 316 10.9 102660 65
2003-05-07 07:34:12 51°18.56 2°53.72 5.3 321 10.9 102650 65
2003-05-07 07:34:16 51°18.57 2°53.75 5.4 319 10.9 102650 65
2003-05-07 07:34:22 51°18.58 2°53.78 5.2 323 10.8 102650 64
2003-05-07 07:34:28 51°18.59 2°53.81 5.6 313 10.8 102650 64
2003-05-07 07:34:32 51°18.59 2°53.83 5.1 316 10.8 102660 64
2003-05-07 07:34:36 51°18.6 2°53.86 5.1 314 10.8 102660 64
2003-05-07 07:34:42 51°18.61 2°53.89 5.1 318 10.9 102660 65
2003-05-07 07:34:48 51°18.62 2°53.92 5 314 10.9 102660 65
2003-05-07 07:34:52 51°18.62 2°53.94 4.9 314 10.8 102650 65
2003-05-07 07:34:56 51°18.63 2°53.97 5 321 10.8 102650 65
2003-05-07 07:35:02 51°18.64 2°54 5.1 314 10.8 102660 65
2003-05-07 07:35:08 51°18.64 2°54.03 4.9 320 10.8 102660 65
2003-05-07 07:35:12 51°18.65 2°54.05 5.1 312 10.8 102650 64
2003-05-07 07:35:16 51°18.65 2°54.07 4.9 317 10.8 102650 64
2003-05-07 07:35:22 51°18.66 2°54.11 4.7 317 10.8 102650 65
2003-05-07 07:35:28 51°18.67 2°54.14 4.6 317 10.8 102650 65
2003-05-07 07:35:32 51°18.68 2°54.16 4.6 325 10.8 102650 65
2003-05-07 07:35:36 51°18.68 2°54.18 4.9 320 10.8 102650 65
2003-05-07 07:35:42 51°18.69 2°54.22 5 319 10.8 102650 64
2003-05-07 07:35:48 51°18.7 2°54.25 4.8 319 10.8 102650 64
2003-05-07 07:35:52 51°18.71 2°54.27 4.7 318 10.8 102650 65
2003-05-07 07:35:56 51°18.71 2°54.29 5 319 10.8 102650 65
2003-05-07 07:36:02 51°18.72 2°54.33 4.6 318 10.8 102660 66
2003-05-07 07:36:08 51°18.73 2°54.36 4.5 319 10.8 102660 66
2003-05-07 07:36:12 51°18.73 2°54.38 4.4 316 10.7 102660 65
2003-05-07 07:36:16 51°18.74 2°54.4 4.5 318 10.7 102660 65
2003-05-07 07:36:22 51°18.75 2°54.43 4.8 320 10.8 102660 66
2003-05-07 07:36:28 51°18.76 2°54.47 4.3 321 10.8 102660 66
2003-05-07 07:36:32 51°18.76 2°54.49 4.3 320 10.8 102660 65
2003-05-07 07:36:38 51°18.77 2°54.52 4.4 325 10.8 102660 65
2003-05-07 07:36:42 51°18.78 2°54.54 4.9 326 10.8 102660 65
2003-05-07 07:36:48 51°18.78 2°54.58 4.4 321 10.8 102660 65
2003-05-07 07:36:52 51°18.79 2°54.6 4.5 320 10.8 102660 65
2003-05-07 07:36:56 51°18.8 2°54.62 4.5 324 10.8 102660 65
2003-05-07 07:37:02 51°18.8 2°54.65 4.8 321 10.8 102650 66
2003-05-07 07:37:08 51°18.81 2°54.69 4.7 321 10.8 102650 66
2003-05-07 07:37:12 51°18.82 2°54.71 4.6 317 10.8 102650 66
2003-05-07 07:37:16 51°18.82 2°54.73 4.5 320 10.8 102650 66
2003-05-07 07:37:22 51°18.83 2°54.76 4.3 322 10.8 102650 65
2003-05-07 07:37:28 51°18.84 2°54.79 4.3 318 10.8 102650 65
2003-05-07 07:37:32 51°18.85 2°54.82 4 317 10.8 102650 64
2003-05-07 07:37:36 51°18.85 2°54.84 4.1 324 10.8 102650 64
2003-05-07 07:37:42 51°18.86 2°54.87 4.1 322 10.7 102650 64
2003-05-07 07:37:48 51°18.87 2°54.9 4.1 319 10.7 102650 64
2003-05-07 07:37:52 51°18.88 2°54.93 4 324 10.8 102650 64
2003-05-07 07:37:56 51°18.88 2°54.95 3.9 325 10.8 102650 64
2003-05-07 07:38:02 51°18.89 2°54.98 4 322 10.8 102650 64
2003-05-07 07:38:08 51°18.9 2°55.01 4 321 10.8 102650 64
2003-05-07 07:38:12 51°18.9 2°55.04 4 324 10.8 102650 64
2003-05-07 07:38:16 51°18.91 2°55.06 4.2 324 10.8 102650 64
2003-05-07 07:38:22 51°18.92 2°55.09 4.1 325 10.7 102650 63
2003-05-07 07:38:28 51°18.93 2°55.12 3.9 326 10.7 102650 63
2003-05-07 07:38:32 51°18.93 2°55.14 4 325 10.8 102650 64
2003-05-07 07:38:36 51°18.94 2°55.17 4.3 324 10.8 102650 64
2003-05-07 07:38:42 51°18.95 2°55.2 4.1 328 10.7 102650 65
2003-05-07 07:38:48 51°18.96 2°55.23 4.1 323 10.7 102650 65
2003-05-07 07:38:52 51°18.96 2°55.25 3.8 326 10.7 102650 64
2003-05-07 07:38:56 51°18.97 2°55.28 4 318 10.7 102650 64
2003-05-07 07:39:02 51°18.97 2°55.31 3.9 325 10.8 102650 65
2003-05-07 07:39:08 51°18.98 2°55.34 4.5 326 10.8 102650 65
2003-05-07 07:39:12 51°18.99 2°55.36 4.8 329 10.8 102650 65
2003-05-07 07:39:16 51°18.99 2°55.38 4.4 325 10.8 102650 65
2003-05-07 07:39:22 51°19 2°55.42 4.6 329 10.8 102660 65
2003-05-07 07:39:28 51°19.01 2°55.45 4.6 329 10.8 102660 65
2003-05-07 07:39:32 51°19.02 2°55.47 4.2 325 10.8 102650 67
2003-05-07 07:39:36 51°19.02 2°55.49 4.2 329 10.8 102650 67
2003-05-07 07:39:42 51°19.03 2°55.53 4.9 327 10.8 102650 67
2003-05-07 07:39:48 51°19.04 2°55.56 4.5 325 10.8 102650 67
2003-05-07 07:39:52 51°19.05 2°55.58 4.6 325 10.8 102650 67
2003-05-07 07:39:56 51°19.05 2°55.6 4.3 325 10.8 102650 67
2003-05-07 07:40:02 51°19.06 2°55.64 4.3 327 10.8 102650 66
2003-05-07 07:40:08 51°19.07 2°55.67 4.3 325 10.8 102650 66
2003-05-07 07:40:12 51°19.07 2°55.69 4.7 331 10.8 102650 67
2003-05-07 07:40:16 51°19.08 2°55.71 4 326 10.8 102650 67
2003-05-07 07:40:22 51°19.09 2°55.74 4.3 328 10.8 102650 67
2003-05-07 07:40:28 51°19.1 2°55.78 4.3 328 10.8 102650 67
2003-05-07 07:40:32 51°19.1 2°55.8 4.6 331 10.8 102660 68
2003-05-07 07:40:36 51°19.11 2°55.82 4.6 328 10.8 102660 68
2003-05-07 07:40:42 51°19.11 2°55.85 4.7 328 10.8 102650 66
2003-05-07 07:40:48 51°19.12 2°55.89 4.7 331 10.8 102650 66
2003-05-07 07:40:52 51°19.13 2°55.91 4.4 328 10.8 102650 67
2003-05-07 07:40:56 51°19.13 2°55.93 4.4 327 10.8 102650 67
2003-05-07 07:41:02 51°19.14 2°55.96 4.5 324 10.8 102660 67
2003-05-07 07:41:08 51°19.15 2°55.99 4.5 328 10.8 102660 67
2003-05-07 07:41:12 51°19.16 2°56.02 4.1 329 10.8 102650 67
2003-05-07 07:41:16 51°19.16 2°56.04 4.7 327 10.8 102650 67
2003-05-07 07:41:22 51°19.17 2°56.07 4.7 327 10.8 102650 66
2003-05-07 07:41:28 51°19.18 2°56.1 4.8 328 10.8 102650 66
2003-05-07 07:41:32 51°19.18 2°56.13 4.6 324 10.8 102660 67
2003-05-07 07:41:38 51°19.19 2°56.16 4.3 327 10.8 102660 67
2003-05-07 07:41:42 51°19.2 2°56.18 4.2 323 10.8 102650 67
2003-05-07 07:41:48 51°19.2 2°56.21 4.3 325 10.8 102650 67
2003-05-07 07:41:52 51°19.21 2°56.23 4.4 328 10.8 102660 67
2003-05-07 07:41:56 51°19.22 2°56.26 4.4 327 10.8 102660 67
2003-05-07 07:42:02 51°19.22 2°56.29 4.1 325 10.8 102650 66
2003-05-07 07:42:08 51°19.23 2°56.32 4.3 324 10.8 102650 66
2003-05-07 07:42:12 51°19.24 2°56.34 4.6 328 10.8 102660 66
2003-05-07 07:42:16 51°19.24 2°56.36 4.5 329 10.8 102660 66
2003-05-07 07:42:22 51°19.25 2°56.4 4.3 328 10.8 102660 67
2003-05-07 07:42:28 51°19.26 2°56.43 4.4 328 10.8 102660 67
2003-05-07 07:42:32 51°19.27 2°56.45 4.5 325 10.8 102660 67
2003-05-07 07:42:36 51°19.27 2°56.47 4.2 329 10.8 102660 67
2003-05-07 07:42:42 51°19.28 2°56.5 4.3 330 10.8 102660 67
2003-05-07 07:42:48 51°19.29 2°56.54 4.6 327 10.8 102660 67
2003-05-07 07:42:52 51°19.29 2°56.56 4.2 329 10.8 102650 67
2003-05-07 07:42:56 51°19.3 2°56.58 4.1 328 10.8 102650 67
2003-05-07 07:43:02 51°19.31 2°56.61 4.1 325 10.8 102650 67
2003-05-07 07:43:08 51°19.32 2°56.65 4.2 329 10.8 102650 67
2003-05-07 07:43:12 51°19.32 2°56.67 4.4 327 10.8 102660 67
2003-05-07 07:43:16 51°19.33 2°56.69 4.5 327 10.8 102660 67
2003-05-07 07:43:22 51°19.33 2°56.72 4.3 330 10.8 102660 67
2003-05-07 07:43:28 51°19.34 2°56.75 4.4 326 10.8 102660 67
2003-05-07 07:43:32 51°19.35 2°56.78 4.1 333 10.7 102660 67
2003-05-07 07:43:36 51°19.36 2°56.8 3.9 329 10.7 102660 67
2003-05-07 07:43:42 51°19.36 2°56.83 4 333 10.8 102660 67
2003-05-07 07:43:48 51°19.37 2°56.86 4 330 10.8 102660 67
2003-05-07 07:43:52 51°19.38 2°56.88 4.4 330 10.8 102660 67
2003-05-07 07:43:56 51°19.39 2°56.9 4.8 333 10.8 102660 67
2003-05-07 07:44:02 51°19.4 2°56.94 4.4 332 10.8 102660 67
2003-05-07 07:44:08 51°19.4 2°56.97 4.6 332 10.8 102660 67
2003-05-07 07:44:12 51°19.41 2°56.99 4.7 326 10.8 102660 67
2003-05-07 07:44:16 51°19.41 2°57.01 4.6 330 10.8 102660 67
2003-05-07 07:44:22 51°19.42 2°57.05 4.3 330 10.8 102660 68
2003-05-07 07:44:28 51°19.43 2°57.08 4.3 332 10.8 102660 68
2003-05-07 07:44:32 51°19.44 2°57.1 5 330 10.8 102660 68
2003-05-07 07:44:36 51°19.44 2°57.12 4.8 332 10.8 102660 68
2003-05-07 07:44:42 51°19.45 2°57.15 4.6 329 10.8 102660 68
2003-05-07 07:44:48 51°19.46 2°57.19 4.4 326 10.8 102660 68
2003-05-07 07:44:52 51°19.47 2°57.21 4.4 332 10.8 102660 68
2003-05-07 07:44:56 51°19.47 2°57.23 4.6 330 10.8 102660 68
2003-05-07 07:45:02 51°19.48 2°57.26 4.2 330 10.8 102660 68
2003-05-07 07:45:08 51°19.49 2°57.29 4.6 329 10.8 102660 68
2003-05-07 07:45:12 51°19.49 2°57.32 4.6 331 10.8 102660 67
2003-05-07 07:45:16 51°19.5 2°57.34 4.6 332 10.8 102660 67
2003-05-07 07:45:22 51°19.51 2°57.37 4.8 330 10.8 102660 68
2003-05-07 07:45:28 51°19.52 2°57.4 4.7 330 10.8 102660 68
2003-05-07 07:45:32 51°19.52 2°57.42 4.4 327 10.8 102660 68
2003-05-07 07:45:36 51°19.53 2°57.44 4.6 331 10.8 102660 68
2003-05-07 07:45:42 51°19.54 2°57.48 4.5 329 10.8 102660 68
2003-05-07 07:45:48 51°19.55 2°57.51 4.1 330 10.8 102660 68
2003-05-07 07:45:52 51°19.55 2°57.53 4.3 329 10.8 102660 68
2003-05-07 07:45:58 51°19.56 2°57.56 4.8 336 10.8 102660 68
2003-05-07 07:46:02 51°19.57 2°57.58 4.7 334 10.8 102660 68
2003-05-07 07:46:08 51°19.58 2°57.62 4.7 334 10.8 102660 68
2003-05-07 07:46:12 51°19.58 2°57.64 4.3 332 10.8 102660 68
2003-05-07 07:46:16 51°19.59 2°57.66 4.5 333 10.8 102660 68
2003-05-07 07:46:22 51°19.6 2°57.69 5 333 10.8 102660 68
2003-05-07 07:46:28 51°19.61 2°57.73 4.5 331 10.8 102660 68
2003-05-07 07:46:32 51°19.61 2°57.75 4.5 334 10.8 102650 68
2003-05-07 07:46:36 51°19.62 2°57.77 4.3 336 10.8 102650 68
2003-05-07 07:46:42 51°19.63 2°57.8 4.4 331 10.8 102660 68
2003-05-07 07:46:48 51°19.64 2°57.83 4.4 337 10.8 102660 68
2003-05-07 07:46:52 51°19.64 2°57.85 4.8 333 10.8 102660 68
2003-05-07 07:46:56 51°19.65 2°57.88 4.4 334 10.8 102660 68
2003-05-07 07:47:02 51°19.66 2°57.91 4.7 336 10.8 102660 68
2003-05-07 07:47:08 51°19.66 2°57.94 4.7 338 10.8 102660 68
2003-05-07 07:47:12 51°19.67 2°57.96 4.6 332 10.9 102660 68
2003-05-07 07:47:16 51°19.67 2°57.99 4.6 333 10.9 102660 68
2003-05-07 07:47:22 51°19.68 2°58.02 4.8 333 10.8 102660 68
2003-05-07 07:47:28 51°19.69 2°58.05 4.5 335 10.8 102660 68
2003-05-07 07:47:32 51°19.69 2°58.08 4.8 332 10.9 102660 68
2003-05-07 07:47:36 51°19.7 2°58.1 5 333 10.9 102660 68
2003-05-07 07:47:42 51°19.71 2°58.13 4.8 330 10.9 102660 68
2003-05-07 07:47:48 51°19.71 2°58.17 4.8 332 10.9 102660 68
2003-05-07 07:47:52 51°19.72 2°58.19 5 333 10.9 102660 68
2003-05-07 07:47:56 51°19.72 2°58.21 5 332 10.9 102660 68
2003-05-07 07:48:02 51°19.73 2°58.24 4.9 335 10.9 102660 68
2003-05-07 07:48:08 51°19.74 2°58.28 4.7 336 10.9 102660 68
2003-05-07 07:48:12 51°19.75 2°58.3 4.8 338 10.9 102660 68
2003-05-07 07:48:16 51°19.75 2°58.32 4.6 333 10.9 102660 68
2003-05-07 07:48:22 51°19.76 2°58.35 4.7 335 10.9 102660 68
2003-05-07 07:48:28 51°19.77 2°58.39 4.6 334 10.9 102660 68
2003-05-07 07:48:32 51°19.77 2°58.41 4.6 335 10.9 102660 68
2003-05-07 07:48:36 51°19.78 2°58.43 4.8 335 10.9 102660 68
2003-05-07 07:48:42 51°19.79 2°58.46 4.9 335 10.9 102660 69
2003-05-07 07:48:48 51°19.79 2°58.5 4.6 333 10.9 102660 69
2003-05-07 07:48:52 51°19.8 2°58.52 5.2 335 10.9 102660 68
2003-05-07 07:48:56 51°19.8 2°58.54 5 333 10.9 102660 68
2003-05-07 07:49:02 51°19.81 2°58.57 4.9 333 10.9 102660 68
2003-05-07 07:49:08 51°19.82 2°58.61 4.9 335 10.9 102660 68
2003-05-07 07:49:12 51°19.82 2°58.63 4.8 334 10.9 102660 69
2003-05-07 07:49:16 51°19.83 2°58.65 5.1 336 10.9 102660 69
2003-05-07 07:49:22 51°19.84 2°58.68 4.9 336 10.9 102660 69
2003-05-07 07:49:28 51°19.85 2°58.72 4.5 338 10.9 102660 69
2003-05-07 07:49:32 51°19.85 2°58.74 4.5 337 10.9 102660 69
2003-05-07 07:49:36 51°19.86 2°58.76 4.6 341 10.9 102660 69
2003-05-07 07:49:42 51°19.87 2°58.79 4.3 340 10.9 102660 69
2003-05-07 07:49:48 51°19.87 2°58.82 4.7 338 10.9 102660 69
2003-05-07 07:49:52 51°19.88 2°58.85 4.8 340 10.9 102660 69
2003-05-07 07:49:56 51°19.89 2°58.87 5.3 339 10.9 102660 69
2003-05-07 07:50:02 51°19.89 2°58.9 4.8 335 10.9 102660 69
2003-05-07 07:50:08 51°19.9 2°58.93 5 335 10.9 102660 69
2003-05-07 07:50:12 51°19.91 2°58.95 4.7 337 11 102660 69
2003-05-07 07:50:16 51°19.91 2°58.98 5 335 11 102660 69
2003-05-07 07:50:22 51°19.92 2°59.01 5 335 11 102660 69
2003-05-07 07:50:28 51°19.92 2°59.04 4.8 338 11 102660 69
2003-05-07 07:50:32 51°19.93 2°59.07 4.8 336 11 102660 69
2003-05-07 07:50:36 51°19.93 2°59.09 4.8 336 11 102660 69
2003-05-07 07:50:42 51°19.94 2°59.12 4.7 337 11 102660 69
2003-05-07 07:50:48 51°19.94 2°59.15 4.6 338 11 102660 69
2003-05-07 07:50:52 51°19.95 2°59.18 5 334 11 102660 69
2003-05-07 07:50:56 51°19.95 2°59.2 4.7 335 11 102660 69
2003-05-07 07:51:02 51°19.96 2°59.23 4.7 338 11 102660 69
2003-05-07 07:51:08 51°19.97 2°59.26 4.7 337 11 102660 69
2003-05-07 07:51:12 51°19.97 2°59.28 4.7 340 11 102660 69
2003-05-07 07:51:16 51°19.98 2°59.31 4.5 340 11 102660 69
2003-05-07 07:51:22 51°19.99 2°59.34 4.4 341 11 102660 69
2003-05-07 07:51:28 51°19.99 2°59.37 4.9 342 11 102660 69
2003-05-07 07:51:32 51°20 2°59.39 4.5 338 11 102660 70
2003-05-07 07:51:36 51°20 2°59.41 4.9 340 11 102660 70
2003-05-07 07:51:42 51°20.01 2°59.45 4.7 336 11.1 102660 69
2003-05-07 07:51:48 51°20.02 2°59.48 5 337 11.1 102660 69
2003-05-07 07:51:52 51°20.02 2°59.5 5.1 335 11.1 102660 69
2003-05-07 07:51:56 51°20.03 2°59.52 4.7 337 11.1 102660 69
2003-05-07 07:52:02 51°20.04 2°59.55 4.9 340 11.1 102660 69
2003-05-07 07:52:08 51°20.04 2°59.59 4.8 340 11.1 102660 69
2003-05-07 07:52:12 51°20.05 2°59.61 4.9 339 11.1 102660 69
2003-05-07 07:52:16 51°20.05 2°59.63 5 341 11.1 102660 69
2003-05-07 07:52:22 51°20.06 2°59.66 5.3 337 11.1 102660 69
2003-05-07 07:52:28 51°20.07 2°59.7 5 341 11.1 102660 69
2003-05-07 07:52:32 51°20.07 2°59.72 5.1 337 11.1 102660 69
2003-05-07 07:52:36 51°20.08 2°59.74 5 339 11.1 102660 69
2003-05-07 07:52:42 51°20.08 2°59.77 5 342 11.1 102660 70
2003-05-07 07:52:48 51°20.09 2°59.8 4.9 343 11.1 102660 70
2003-05-07 07:52:52 51°20.1 2°59.83 4.7 346 11.1 102660 70
2003-05-07 07:52:56 51°20.1 2°59.85 5 341 11.1 102660 70
2003-05-07 07:53:02 51°20.11 2°59.88 4.7 341 11.1 102660 70
2003-05-07 07:53:08 51°20.12 2°59.91 4.6 343 11.1 102660 70
2003-05-07 07:53:12 51°20.12 2°59.93 5.3 342 11.1 102660 70
2003-05-07 07:53:16 51°20.13 2°59.95 4.7 341 11.1 102660 70
2003-05-07 07:53:22 51°20.13 2°59.99 4.6 339 11.1 102660 70
2003-05-07 07:53:28 51°20.14 3°0.02 4.6 341 11.1 102660 70
2003-05-07 07:53:32 51°20.15 3°0.04 4.7 342 11.1 102660 70
2003-05-07 07:53:36 51°20.15 3°0.06 4.7 340 11.1 102660 70
2003-05-07 07:53:42 51°20.16 3°0.09 4.9 337 11.1 102660 70
2003-05-07 07:53:48 51°20.17 3°0.13 4.9 341 11.1 102660 70
2003-05-07 07:53:52 51°20.17 3°0.15 4.9 344 11.1 102660 70
2003-05-07 07:53:56 51°20.18 3°0.17 5 343 11.1 102660 70
2003-05-07 07:54:02 51°20.18 3°0.2 4.9 344 11.1 102660 70
2003-05-07 07:54:08 51°20.19 3°0.23 5 343 11.1 102660 70
2003-05-07 07:54:12 51°20.2 3°0.25 4.8 338 11.2 102660 70
2003-05-07 07:54:16 51°20.2 3°0.28 5.2 343 11.2 102660 70
2003-05-07 07:54:22 51°20.21 3°0.31 4.8 337 11.2 102660 70
2003-05-07 07:54:28 51°20.22 3°0.34 5 340 11.2 102660 70
2003-05-07 07:54:32 51°20.22 3°0.36 5.1 336 11.2 102660 70
2003-05-07 07:54:36 51°20.22 3°0.38 4.9 337 11.2 102660 70
2003-05-07 07:54:42 51°20.23 3°0.42 5.1 336 11.2 102650 70
2003-05-07 07:54:48 51°20.24 3°0.45 4.9 339 11.2 102650 70
2003-05-07 07:54:52 51°20.24 3°0.47 4.7 336 11.2 102660 70
2003-05-07 07:54:56 51°20.25 3°0.49 4.8 339 11.2 102660 70
2003-05-07 07:55:02 51°20.25 3°0.52 4.9 345 11.2 102650 70
2003-05-07 07:55:08 51°20.26 3°0.56 4.7 341 11.2 102650 70
2003-05-07 07:55:12 51°20.27 3°0.58 4.9 343 11.2 102660 70
2003-05-07 07:55:16 51°20.27 3°0.6 4.8 344 11.2 102660 70
2003-05-07 07:55:22 51°20.28 3°0.63 4.7 342 11.2 102650 70
2003-05-07 07:55:28 51°20.29 3°0.66 4.9 343 11.2 102650 70
2003-05-07 07:55:32 51°20.29 3°0.68 4.9 339 11.2 102660 70
2003-05-07 07:55:36 51°20.3 3°0.7 4.8 341 11.2 102660 70
2003-05-07 07:55:42 51°20.31 3°0.74 4.8 344 11.2 102660 70
2003-05-07 07:55:48 51°20.31 3°0.77 4.6 339 11.2 102660 70
2003-05-07 07:55:52 51°20.32 3°0.79 4.6 342 11.2 102660 70
2003-05-07 07:55:56 51°20.32 3°0.81 4.3 339 11.2 102660 70
2003-05-07 07:56:02 51°20.33 3°0.84 4.3 341 11.2 102650 70
2003-05-07 07:56:08 51°20.34 3°0.87 4.2 343 11.2 102650 70
2003-05-07 07:56:12 51°20.34 3°0.9 4.3 340 11.2 102660 70
2003-05-07 07:56:16 51°20.35 3°0.92 4.5 345 11.2 102660 70
2003-05-07 07:56:22 51°20.35 3°0.95 4.5 338 11.2 102660 70
2003-05-07 07:56:28 51°20.36 3°0.98 4.4 338 11.2 102660 70
2003-05-07 07:56:32 51°20.37 3°1 4.5 339 11.2 102650 70
2003-05-07 07:56:36 51°20.37 3°1.02 4.4 341 11.2 102650 70
2003-05-07 07:56:42 51°20.38 3°1.06 4.4 346 11.2 102660 70
2003-05-07 07:56:48 51°20.38 3°1.09 5.1 339 11.2 102660 70
2003-05-07 07:56:52 51°20.39 3°1.11 5.6 340 11.2 102660 70
2003-05-07 07:56:56 51°20.39 3°1.13 5 339 11.2 102660 70
2003-05-07 07:57:02 51°20.4 3°1.16 5.5 343 11.2 102650 71
2003-05-07 07:57:08 51°20.41 3°1.2 5 336 11.2 102650 71
2003-05-07 07:57:12 51°20.41 3°1.22 4.8 340 11.2 102650 71
2003-05-07 07:57:16 51°20.42 3°1.24 4.9 343 11.2 102650 71
2003-05-07 07:57:22 51°20.42 3°1.27 4.9 340 11.2 102650 71
2003-05-07 07:57:28 51°20.43 3°1.3 4.7 337 11.2 102650 71
2003-05-07 07:57:32 51°20.44 3°1.32 5.1 344 11.2 102650 71
2003-05-07 07:57:36 51°20.44 3°1.34 5.1 341 11.2 102650 71
2003-05-07 07:57:42 51°20.45 3°1.38 5.1 339 11.2 102650 70
2003-05-07 07:57:48 51°20.46 3°1.41 4.7 340 11.2 102650 70
2003-05-07 07:57:52 51°20.46 3°1.43 4.7 341 11.2 102650 70
2003-05-07 07:57:56 51°20.46 3°1.45 4.9 339 11.2 102650 70
2003-05-07 07:58:02 51°20.47 3°1.48 4.9 337 11.2 102650 70
2003-05-07 07:58:08 51°20.48 3°1.52 5.1 336 11.2 102650 70
2003-05-07 07:58:12 51°20.48 3°1.54 5.2 338 11.3 102650 70
2003-05-07 07:58:16 51°20.49 3°1.56 5 341 11.3 102650 70
2003-05-07 07:58:22 51°20.49 3°1.59 5 342 11.2 102650 70
2003-05-07 07:58:28 51°20.5 3°1.62 5 341 11.2 102650 70
2003-05-07 07:58:32 51°20.51 3°1.64 5.4 341 11.3 102660 70
2003-05-07 07:58:36 51°20.51 3°1.66 5.2 335 11.3 102660 70
2003-05-07 07:58:42 51°20.52 3°1.7 4.9 340 11.3 102650 71
2003-05-07 07:58:48 51°20.52 3°1.73 4.9 339 11.3 102650 71
2003-05-07 07:58:52 51°20.53 3°1.75 5.1 341 11.3 102650 71
2003-05-07 07:58:56 51°20.53 3°1.77 5 338 11.3 102650 71
2003-05-07 07:59:02 51°20.54 3°1.8 4.8 331 11.3 102650 70
2003-05-07 07:59:08 51°20.55 3°1.84 4.9 339 11.3 102650 70
2003-05-07 07:59:12 51°20.55 3°1.86 5 338 11.4 102650 71
2003-05-07 07:59:16 51°20.56 3°1.88 5.1 338 11.4 102650 71
2003-05-07 07:59:22 51°20.56 3°1.91 5.1 335 11.4 102650 70
2003-05-07 07:59:28 51°20.57 3°1.94 4.9 333 11.4 102650 70
2003-05-07 07:59:32 51°20.58 3°1.96 5 332 11.4 102650 70
2003-05-07 07:59:36 51°20.58 3°1.99 5 325 11.4 102650 70
2003-05-07 07:59:42 51°20.59 3°2.02 5.3 330 11.4 102650 70
2003-05-07 07:59:48 51°20.59 3°2.05 5.7 330 11.4 102650 70
2003-05-07 07:59:52 51°20.6 3°2.07 5.9 332 11.4 102650 70
2003-05-07 07:59:56 51°20.6 3°2.09 5.8 326 11.4 102650 70
2003-05-07 08:00:02 51°20.61 3°2.12 5.8 329 11.4 102650 69
2003-05-07 08:00:08 51°20.62 3°2.16 5.5 326 11.4 102650 69
2003-05-07 08:00:12 51°20.62 3°2.18 5.2 328 11.4 102650 70
2003-05-07 08:00:16 51°20.62 3°2.2 5 332 11.4 102650 70
2003-05-07 08:00:22 51°20.63 3°2.23 5.1 330 11.4 102650 69
2003-05-07 08:00:28 51°20.64 3°2.26 5.1 332 11.4 102650 69
2003-05-07 08:00:32 51°20.64 3°2.28 5.3 334 11.4 102650 69
2003-05-07 08:00:36 51°20.65 3°2.31 5.3 333 11.4 102650 69
2003-05-07 08:00:42 51°20.66 3°2.34 5.7 330 11.4 102650 69
2003-05-07 08:00:48 51°20.66 3°2.37 5.3 329 11.4 102650 69
2003-05-07 08:00:52 51°20.67 3°2.39 5 330 11.4 102650 69
2003-05-07 08:00:56 51°20.67 3°2.41 5.2 334 11.4 102650 69
2003-05-07 08:01:02 51°20.68 3°2.44 5.4 335 11.4 102650 69
2003-05-07 08:01:08 51°20.69 3°2.47 5.1 332 11.4 102650 69
2003-05-07 08:01:12 51°20.69 3°2.5 5.2 327 11.4 102650 69
2003-05-07 08:01:16 51°20.7 3°2.52 5.7 336 11.4 102650 69
2003-05-07 08:01:22 51°20.7 3°2.55 5.4 332 11.4 102650 69
2003-05-07 08:01:28 51°20.71 3°2.58 5.7 334 11.4 102650 69
2003-05-07 08:01:32 51°20.71 3°2.6 5.7 331 11.4 102650 68
2003-05-07 08:01:36 51°20.72 3°2.63 5.4 333 11.4 102650 68
2003-05-07 08:01:42 51°20.73 3°2.66 5.6 332 11.4 102650 68
2003-05-07 08:01:48 51°20.73 3°2.69 5.5 329 11.4 102650 68
2003-05-07 08:01:52 51°20.74 3°2.71 5.3 332 11.4 102650 69
2003-05-07 08:01:56 51°20.74 3°2.73 5.1 331 11.4 102650 69
2003-05-07 08:02:02 51°20.75 3°2.76 5.2 326 11.4 102650 69
2003-05-07 08:02:08 51°20.76 3°2.79 5.2 325 11.4 102650 69
2003-05-07 08:02:12 51°20.76 3°2.82 5.2 323 11.5 102650 69
2003-05-07 08:02:16 51°20.77 3°2.84 5.5 326 11.5 102650 69
2003-05-07 08:02:22 51°20.78 3°2.87 5.3 328 11.4 102650 68
2003-05-07 08:02:28 51°20.78 3°2.9 5.1 328 11.4 102650 68
2003-05-07 08:02:32 51°20.79 3°2.92 5.6 330 11.4 102650 68
2003-05-07 08:02:36 51°20.79 3°2.94 5.3 326 11.4 102650 68
2003-05-07 08:02:42 51°20.8 3°2.98 5.1 326 11.4 102650 67
2003-05-07 08:02:48 51°20.8 3°3.01 5.5 328 11.4 102650 67
2003-05-07 08:02:52 51°20.81 3°3.03 5 328 11.4 102650 67
2003-05-07 08:02:56 51°20.81 3°3.05 5.1 327 11.4 102650 67
2003-05-07 08:03:02 51°20.82 3°3.08 5 331 11.4 102650 67
2003-05-07 08:03:08 51°20.83 3°3.12 4.9 329 11.4 102650 67
2003-05-07 08:03:12 51°20.83 3°3.14 5.1 329 11.4 102660 68
2003-05-07 08:03:16 51°20.84 3°3.16 5.3 329 11.4 102660 68
2003-05-07 08:03:22 51°20.84 3°3.19 5.1 326 11.4 102660 68
2003-05-07 08:03:28 51°20.85 3°3.22 5.4 329 11.4 102660 68
2003-05-07 08:03:32 51°20.85 3°3.24 5.7 334 11.4 102650 68
2003-05-07 08:03:36 51°20.86 3°3.26 5.2 328 11.4 102650 68
2003-05-07 08:03:42 51°20.87 3°3.3 5.1 330 11.4 102650 68
2003-05-07 08:03:48 51°20.87 3°3.33 5.3 327 11.4 102650 68
2003-05-07 08:03:52 51°20.88 3°3.35 5.1 332 11.4 102650 69
2003-05-07 08:03:56 51°20.88 3°3.37 5 331 11.4 102650 69
2003-05-07 08:04:02 51°20.89 3°3.4 5.1 330 11.4 102650 69
2003-05-07 08:04:08 51°20.89 3°3.44 5.1 330 11.4 102650 69
2003-05-07 08:04:12 51°20.9 3°3.46 4.7 331 11.4 102650 69
2003-05-07 08:04:16 51°20.9 3°3.48 4.9 335 11.4 102650 69
2003-05-07 08:04:22 51°20.91 3°3.51 4.8 334 11.4 102650 69
2003-05-07 08:04:28 51°20.92 3°3.54 4.7 334 11.4 102650 69
2003-05-07 08:04:32 51°20.92 3°3.56 4.6 334 11.4 102650 68
2003-05-07 08:04:36 51°20.93 3°3.59 4.9 339 11.4 102650 68
2003-05-07 08:04:42 51°20.93 3°3.62 4.7 336 11.4 102650 69
2003-05-07 08:04:48 51°20.94 3°3.65 4.8 338 11.4 102650 69
2003-05-07 08:04:52 51°20.94 3°3.67 4.6 335 11.5 102650 69
2003-05-07 08:04:56 51°20.95 3°3.69 4.7 336 11.5 102650 69
2003-05-07 08:05:02 51°20.96 3°3.72 4.7 338 11.5 102650 69
2003-05-07 08:05:08 51°20.96 3°3.76 4.6 337 11.5 102650 69
2003-05-07 08:05:12 51°20.97 3°3.78 4.4 333 11.5 102650 69
2003-05-07 08:05:16 51°20.97 3°3.8 4 330 11.5 102650 69
2003-05-07 08:05:22 51°20.98 3°3.83 3.8 332 11.5 102650 69
2003-05-07 08:05:28 51°20.99 3°3.86 3.6 329 11.5 102650 69
2003-05-07 08:05:32 51°20.99 3°3.87 3.7 331 11.5 102650 69
2003-05-07 08:05:36 51°20.99 3°3.89 3.4 326 11.5 102650 69
2003-05-07 08:05:42 51°21 3°3.92 2.8 321 11.5 102650 69
2003-05-07 08:05:48 51°21 3°3.94 2.6 314 11.5 102650 69
2003-05-07 08:05:52 51°21.01 3°3.95 2.4 307 11.6 102660 69
2003-05-07 08:05:56 51°21.01 3°3.96 2.4 305 11.6 102660 69
2003-05-07 08:06:02 51°21.01 3°3.98 2.4 305 11.6 102650 70
2003-05-07 08:06:08 51°21.02 3°4 2.3 284 11.6 102650 70
2003-05-07 08:06:12 51°21.02 3°4.01 2.1 280 11.6 102650 69
2003-05-07 08:06:16 51°21.02 3°4.02 2.1 257 11.6 102650 69
2003-05-07 08:06:22 51°21.02 3°4.03 1.6 252 11.6 102650 70
2003-05-07 08:06:28 51°21.02 3°4.04 1.3 241 11.6 102650 70
2003-05-07 08:06:32 51°21.02 3°4.04 1.4 228 11.6 102650 71
2003-05-07 08:06:36 51°21.03 3°4.05 1.1 202 11.6 102650 71
2003-05-07 08:06:42 51°21.03 3°4.05 1.1 188 11.6 102650 70
2003-05-07 08:06:48 51°21.03 3°4.06 1 164 11.6 102650 70
2003-05-07 08:06:52 51°21.04 3°4.06 0.6 162 11.6 102650 70
2003-05-07 08:06:56 51°21.04 3°4.06 1.2 135 11.6 102650 70
2003-05-07 08:07:02 51°21.04 3°4.07 1.4 138 11.7 102650 70
2003-05-07 08:07:08 51°21.04 3°4.07 1 125 11.7 102650 70
2003-05-07 08:07:12 51°21.05 3°4.07 1 142 11.7 102650 70
2003-05-07 08:07:16 51°21.05 3°4.07 2.3 132 11.7 102650 70
2003-05-07 08:07:22 51°21.05 3°4.07 2.6 136 11.7 102650 70
2003-05-07 08:07:28 51°21.05 3°4.07 2.9 128 11.7 102650 70
2003-05-07 08:07:32 51°21.05 3°4.06 2.8 126 11.7 102650 71
2003-05-07 08:07:36 51°21.05 3°4.06 2.9 127 11.7 102650 71
2003-05-07 08:07:42 51°21.06 3°4.06 3.1 125 11.7 102640 71
2003-05-07 08:07:48 51°21.06 3°4.06 3.1 122 11.7 102640 71
2003-05-07 08:07:52 51°21.06 3°4.06 2.8 122 11.7 102640 70
2003-05-07 08:07:56 51°21.06 3°4.06 3.3 121 11.7 102640 70
2003-05-07 08:08:02 51°21.06 3°4.06 2.9 121 11.7 102640 70
2003-05-07 08:08:08 51°21.06 3°4.05 3.2 119 11.7 102640 70
2003-05-07 08:08:12 51°21.06 3°4.05 2.9 119 11.7 102640 71
2003-05-07 08:08:16 51°21.06 3°4.05 2.4 112 11.7 102640 71
2003-05-07 08:08:22 51°21.07 3°4.05 2.7 115 11.7 102640 70
2003-05-07 08:08:28 51°21.07 3°4.04 2.9 116 11.7 102640 70
2003-05-07 08:08:32 51°21.07 3°4.04 2.6 116 11.7 102640 70
2003-05-07 08:08:36 51°21.07 3°4.04 2.5 113 11.7 102640 70
2003-05-07 08:08:42 51°21.07 3°4.04 2.7 116 11.7 102640 69
2003-05-07 08:08:48 51°21.07 3°4.03 2.5 113 11.7 102640 69
2003-05-07 08:08:52 51°21.07 3°4.03 2.2 108 11.7 102640 70
2003-05-07 08:08:56 51°21.07 3°4.03 2.7 105 11.7 102640 70
2003-05-07 08:09:02 51°21.07 3°4.03 2.2 104 11.7 102640 70
2003-05-07 08:09:08 51°21.08 3°4.02 2.2 105 11.7 102640 70
2003-05-07 08:09:12 51°21.08 3°4.02 2.4 108 11.7 102640 70
2003-05-07 08:09:16 51°21.08 3°4.02 2.2 105 11.7 102640 70
2003-05-07 08:09:22 51°21.08 3°4.02 2.3 106 11.7 102640 70
2003-05-07 08:09:28 51°21.08 3°4.01 2.8 104 11.7 102640 70
2003-05-07 08:09:32 51°21.08 3°4.01 2.2 105 11.7 102640 69
2003-05-07 08:09:36 51°21.08 3°4.01 2.8 105 11.7 102640 69
2003-05-07 08:09:42 51°21.08 3°4.01 2.6 104 11.7 102640 70
2003-05-07 08:09:48 51°21.08 3°4 2.4 104 11.7 102640 70
2003-05-07 08:09:52 51°21.08 3°4 3.2 104 11.7 102640 70
2003-05-07 08:09:56 51°21.08 3°4 2.8 104 11.7 102640 70
2003-05-07 08:10:02 51°21.08 3°4 2.2 105 11.7 102640 69
2003-05-07 08:10:08 51°21.08 3°3.99 2.6 105 11.7 102640 69
2003-05-07 08:10:12 51°21.08 3°3.99 2.7 105 11.7 102650 70
2003-05-07 08:10:16 51°21.09 3°3.99 2.3 104 11.7 102650 70
2003-05-07 08:10:22 51°21.09 3°3.99 2.2 105 11.7 102640 70
2003-05-07 08:10:28 51°21.09 3°3.98 2.2 104 11.7 102640 70
2003-05-07 08:10:32 51°21.09 3°3.98 2.5 104 11.6 102640 69
2003-05-07 08:10:36 51°21.09 3°3.98 2.3 105 11.6 102640 69
2003-05-07 08:10:42 51°21.09 3°3.97 2.3 107 11.6 102650 69
2003-05-07 08:10:48 51°21.09 3°3.97 2.3 108 11.6 102650 69
2003-05-07 08:10:52 51°21.09 3°3.97 2.2 106 11.6 102640 69
2003-05-07 08:10:56 51°21.09 3°3.97 2.4 108 11.6 102640 69
2003-05-07 08:11:02 51°21.09 3°3.96 2.5 108 11.6 102650 69
2003-05-07 08:11:08 51°21.09 3°3.96 2.2 107 11.6 102650 69
2003-05-07 08:11:12 51°21.09 3°3.96 2.2 108 11.6 102650 69
2003-05-07 08:11:16 51°21.09 3°3.96 2.3 104 11.6 102650 69
2003-05-07 08:11:22 51°21.09 3°3.95 2.7 104 11.6 102640 69
2003-05-07 08:11:28 51°21.09 3°3.95 2.3 104 11.6 102640 69
2003-05-07 08:11:32 51°21.09 3°3.95 2.4 104 11.6 102640 69
2003-05-07 08:11:36 51°21.09 3°3.95 3 103 11.6 102640 69
2003-05-07 08:11:42 51°21.09 3°3.94 2.9 101 11.6 102650 69
2003-05-07 08:11:48 51°21.09 3°3.94 2.4 101 11.6 102650 69
2003-05-07 08:11:52 51°21.09 3°3.94 3.1 99 11.6 102650 69
2003-05-07 08:11:56 51°21.09 3°3.94 2.6 99 11.6 102650 69
2003-05-07 08:12:02 51°21.09 3°3.93 2.8 100 11.6 102650 69
2003-05-07 08:12:08 51°21.09 3°3.93 2.8 99 11.6 102650 69
2003-05-07 08:12:12 51°21.09 3°3.93 2.9 101 11.6 102650 69
2003-05-07 08:12:16 51°21.09 3°3.92 2.7 101 11.6 102650 69
2003-05-07 08:12:22 51°21.1 3°3.92 3.1 100 11.6 102650 69
2003-05-07 08:12:28 51°21.1 3°3.92 2.9 98 11.6 102650 69
2003-05-07 08:12:32 51°21.1 3°3.92 3.2 97 11.7 102650 69
2003-05-07 08:12:36 51°21.1 3°3.91 3 89 11.7 102650 69
2003-05-07 08:12:42 51°21.1 3°3.91 2.8 88 11.7 102650 70